This is the latest recevied weather packets stored in our database for station/object K8RRT. If no packets are shown the sender has not sent any weather packets the latest 10 day(s).
| Time | Temp. | Humidity | Pressure | Rain* | Wind** | Luminosity | Snow |
|---|---|---|---|---|---|---|---|
| 1777929926 | 24.44° C | 54% | 1005.2 hPa | 0 mm | - | 255 W/m² | - |
| 1777929623 | 25° C | 52% | 1005.1 hPa | 0 mm | - | 283 W/m² | - |
| 1777929320 | 24.44° C | 54% | 1005.2 hPa | 0 mm | - | 481 W/m² | - |
| 1777929017 | 24.44° C | 53% | 1005.2 hPa | 0 mm | - | 280 W/m² | - |
| 1777928714 | 24.44° C | 54% | 1005.1 hPa | 0 mm | - | 425 W/m² | - |
| 1777928411 | 23.89° C | 55% | 1005.5 hPa | 0 mm | - | 477 W/m² | - |
| 1777928109 | 23.89° C | 56% | 1005.4 hPa | 0 mm | - | 529 W/m² | - |
| 1777927807 | 23.89° C | 55% | 1005.3 hPa | 0 mm | - | 539 W/m² | - |
| 1777927504 | 23.89° C | 55% | 1005.5 hPa | 0 mm | - | 445 W/m² | - |
| 1777927203 | 23.89° C | 55% | 1005.5 hPa | 0 mm | - | 442 W/m² | - |
| 1777926901 | 23.89° C | 55% | 1005.5 hPa | 0 mm | - | 470 W/m² | - |
| 1777926596 | 23.33° C | 57% | 1005.3 hPa | 0 mm | - | 590 W/m² | - |
| 1777926293 | 23.33° C | 55% | 1005.5 hPa | 0 mm | - | 385 W/m² | - |
| 1777925990 | 23.33° C | 53% | 1005.7 hPa | 0 mm | - | 469 W/m² | - |
| 1777925687 | 23.33° C | 53% | 1005.7 hPa | 0 mm | - | 418 W/m² | - |
| 1777925385 | 23.33° C | 53% | 1005.7 hPa | 0 mm | - | 471 W/m² | - |
| 1777925081 | 22.78° C | 52% | 1005.6 hPa | 0 mm | - | 637 W/m² | - |
| 1777924778 | 22.22° C | 55% | 1005.9 hPa | 0 mm | - | 428 W/m² | - |
| 1777924474 | 22.22° C | 58% | 1005.8 hPa | 0 mm | - | 562 W/m² | - |
| 1777924171 | 21.67° C | 57% | 1005.9 hPa | 0 mm | - | 793 W/m² | - |
| 1777923867 | 21.67° C | 59% | 1006.1 hPa | 0 mm | - | 431 W/m² | - |
| 1777923563 | 21.67° C | 59% | 1006.1 hPa | 0 mm | - | 407 W/m² | - |
| 1777923260 | 21.11° C | 62% | 1006.1 hPa | 0 mm | - | 764 W/m² | - |
| 1777922959 | 20.56° C | 62% | 1006.1 hPa | 0 mm | - | 274 W/m² | - |
| 1777922655 | 21.11° C | 66% | 1006.4 hPa | 0 mm | - | 272 W/m² | - |
* Rain latest hour (hover to see other rain measurements)
** Current wind speed in m/s (hover to see current wind gust speed)